Location: Izdebno
(52.6670°N, 16.2170°E)
Time: 03:40:33
(UTC+02:00)

Transit 4A - Pass Details

Date: 25 February 2024
Orbit: 871 x 972 km, 66.8° (Epoch: 22 April)

Event Time Altitude Azimuth Distance (km) Brightness Sun altitude
Rises 10:18:32 0° 318° (NW) 3,507 10.3 23.8°
Reaches altitude 10° 10:21:09 10° 312° (NW) 2,552 9.7 24.0°
Maximum altitude 10:26:40 43° 243° (WSW) 1,212 8.8 24.4°
Drops below altitude 10° 10:32:06 10° 174° (S) 2,514 11.6 24.8°
Sets 10:34:40 0° 167° (SSE) 3,448 12.2 25.0°
